SCP
0 0 0 0 0 0 0 0 0 0 0 0 0 0 0 0 0 0 0 0 0 0 0 0 0 0 0 0 0 0 0 0 0 0 0 0 0 0
0 -0 0 0 0 0 0 0 0 0 0 0 0 0 0 0 0 0 0 0 0 0 0 0 0 0 0 0 0 0 0 0 0 0 0 0 0 0
0 0 0 0 0 0 0 0 0 0 0 0 0 0 0 0 0 0 0 0 0 0 0 0 0 0 0 0 0 0 0 0 0 0 0 0 0 0
0 0 0 0 0 0 0 0 0 0 0 0 0 0 0 0 0 0 0 0 0 0 0 0 0 0 0 0 0 0 0 0 0 0 0 0 0 0
0 0 0 0 0 0 0 0 0 0 0 0 0 0 0 0 0 0 0 0 0 0 0 0 0 0 0 0 0 0 0 0 0 -0 0 0 0 0
0 0 0 0 0 0 0 0 0 0 0 0 0 0 0 0 0 0 0 0 0 0 0 0 0 0 0 0 0 -0 0 0 0 -0 -0 0 -0 0
0 0 0 0 0 0 0 0 0 0 0 0 0 0 0 0 0 0 0 0 0 0 0 0 0 0 0 0 0 0 0 -0 -0 -0 -0 -0 0 0
0 0 0 0 0 0 0 0 0 0 0 0 0 0 0 0 0 0 0 0 0 0 0 0 0 0 0 0 0 0 -0 -0 -0 0 0 0 0 0
0 0 0 0 0 0 0 0 0 0 0 0 0 0 0 0 0 0 0 0 0 0 0 0 0 0 0 0 -0 -0 -0 -0 -0 0 0 0 0 0
0 0 0 0 0 0 0 0 0 0 0 0 0 0 0 0 0 0 0 0 0 0 0 -0 -0 0 0 0 -0 -0 -0 -0 -0 -0 -0 -0 0 0
0 0 0 0 0 0 0 0 0 0 0 0 0 0 0 0 0 0 0 0 0 -0 -0 0 0 -0 -0 -0 0 -0 0 0 0 0 -0 -0 -0 0
0 0 0 0 0 0 0 0 0 0 0 0 0 0 0 0 -0 0 0 0 0 -0 -0 -0 -0 -0 0 0 -0 -0 -0 -0 -0 0 0 -0 -0 0
0 0 -0 0 0 0 0 0 0 0 0 0 0 0 0 0 0 0 -0 -0 -0 -0 -0 -0 -0 0 0 0 0 -0 -0 -0 -0 -0 0 -0 0 0
0 0 0 0 0 0 0 0 0 0 0 0 0 0 0 0 0 0 -0 -0 -0 0 0 0 0 0 0 0 0 0 0 0 0 0 -0 -0 -0 -0
0 0 0 0 0 0 0 0 0 0 0 0 0 0 0 0 -0 -0 -0 -0 0 0 0 0 0 0 0 0 0 0 0 0 0 0 0 0 0 0
0 0 0 0 0 0 0 0 0 0 0 0 0 0 0 -0 -0 -0 -0 0 0 0 0 0 0 0 0 -0 -0 0 0 0 0 0 0 0 0 0
0 0 0 0 0 0 0 0 0 0 0 0 0 0 -0 -0 -0 0 0 0 0 0 0 0 0 -0 0 -0 -0 -0 -0 0 0 0 0 0 0 0
0 0 0 0 0 0 0 0 0 0 0 0 0 0 0 0 0 0 0 0 0 0 0 0 0 0 0 0 -0 -0 -0 0 0 0 0 0 0 0
0 0 0 0 0 0 0 0 0 0 0 0 0 0 0 0 0 0 0 0 0 0 0 0 0 0 0 -0 -0 -0 -0 -0 0 0 0 0 0 0
0 0 0 0 0 0 0 0 0 0 0 0 0 0 0 0 0 0 0 0 0 0 0 0 0 0 0 0 -0 -0 -0 -0 0 -0 -0 0 0 0
0 0 0 0 0 0 0 0 0 0 0 0 0 0 0 0 0 0 0 0 -0 -0 -0 -0 0 0 0 -0 -0 -0 -0 -0 -0 0 0 0 0 0
0 0 0 0 0 0 0 0 0 0 0 0 0 0 0 0 0 0 0 -0 0 0 -0 -0 -0 -0 -0 -0 -0 -0 -0 -0 -0 -0 0 0 0 0
0 0 0 0 0 0 0 0 0 0 0 0 0 0 0 0 0 0 0 0 -0 -0 -0 -0 -0 -0 -0 -0 -0 -0 -0 -0 -0 0 0 0 0 0
Wind_Speed_500mb
72 68 64 60 55 48 46 44 33 28 23 18 14 16 16 17 9 5 10 14 21 17 15 13 15 17 23 26 27 27 25 23 21 23 21 18 22 19
92 85 81 74 64 59 58 46 41 36 24 17 18 14 22 21 16 12 14 12 8 9 1 7 15 19 22 23 22 23 20 20 21 21 19 20 21 22
45 57 65 75 78 59 50 47 47 41 33 20 15 10 17 22 21 14 10 10 6 1 6 10 13 17 20 22 22 24 23 20 17 22 20 21 26 25
40 37 43 45 54 59 46 48 45 46 41 21 17 23 25 18 23 17 11 11 7 7 8 11 17 23 25 26 28 32 20 13 20 23 21 26 27 30
34 33 31 32 43 52 55 48 48 46 39 26 18 23 27 25 28 25 16 11 13 9 8 11 20 27 27 30 30 32 29 23 23 24 26 29 35 37
35 33 35 31 33 42 52 49 54 45 35 26 19 22 22 31 37 31 24 20 21 14 11 14 24 29 27 28 30 32 30 26 23 25 30 32 39 28
38 37 30 30 28 20 44 48 55 49 37 26 19 22 26 38 39 38 32 28 24 17 15 18 22 25 31 32 34 34 34 27 27 32 33 28 30 35
41 35 29 21 18 35 38 58 44 42 39 26 27 25 29 23 31 43 40 38 29 24 18 16 18 22 28 30 36 37 39 32 27 31 32 30 29 26
41 44 31 26 20 29 33 49 40 34 28 24 20 22 28 25 29 43 47 37 32 28 21 17 20 23 29 37 42 44 41 37 28 33 38 29 26 25
34 39 37 32 21 30 37 27 34 22 23 27 23 22 11 12 25 38 34 32 27 27 24 21 25 19 25 35 47 47 46 47 36 29 38 40 33 32
32 32 31 25 26 34 42 38 35 15 21 27 28 26 20 10 16 27 42 42 39 31 20 16 19 20 19 29 40 45 50 48 40 34 28 30 31 32
25 29 33 28 22 22 29 31 29 27 26 32 35 36 26 13 5 20 43 45 41 32 22 14 17 11 16 21 29 38 45 47 44 35 30 27 25 28
23 27 34 37 32 29 32 36 34 29 25 24 25 35 18 13 30 36 40 41 36 11 21 13 10 10 13 16 19 25 37 38 38 35 35 37 35 30
25 24 25 32 40 33 39 43 35 23 32 25 27 33 20 42 45 48 45 36 18 10 16 7 7 11 8 13 11 17 31 32 32 33 37 39 41 46
30 30 28 34 36 37 37 33 26 28 29 33 38 35 51 65 61 52 35 27 22 19 11 1 10 12 8 7 8 10 16 29 28 34 40 49 52 53
36 36 35 39 35 37 40 33 27 34 32 39 38 57 71 66 56 44 40 37 33 32 30 23 21 17 19 22 29 36 36 31 37 40 50 56 59 62
44 40 37 40 41 37 36 32 28 35 44 46 58 75 67 57 46 48 40 46 38 36 35 32 25 35 41 39 44 45 45 46 48 53 60 68 73 73
40 32 40 45 35 42 40 39 35 46 52 66 76 68 61 59 56 51 39 34 34 35 33 32 37 39 35 36 37 42 44 50 56 62 70 80 83 83
43 42 39 34 36 37 37 36 40 43 68 79 72 67 63 54 50 50 39 34 34 32 32 28 28 27 30 30 29 32 34 39 43 53 63 71 76 79
45 49 39 36 36 45 46 49 49 70 81 74 70 66 55 50 47 40 37 39 38 37 34 23 21 15 21 29 30 27 28 29 37 47 53 57 62 64
54 49 42 38 45 47 47 50 66 78 77 69 63 53 48 45 42 42 46 46 42 36 32 26 21 17 20 26 30 31 31 30 31 40 43 43 47 49
43 48 46 50 50 50 49 69 81 76 60 57 53 46 45 47 58 59 49 41 33 26 29 36 39 37 40 43 46 45 40 32 26 23 26 34 34 36
50 57 55 56 50 51 80 85 68 62 52 54 54 52 50 63 48 43 48 36 48 60 65 61 53 47 44 42 41 40 38 35 30 26 26 28 31 33
Wind_Direction_500mb
270 269 269 267 267 266 259 256 260 245 237 239 221 209 220 230 236 247 278 291 288 294 304 317 321 331 330 335 338 336 331 319 310 304 303 305 300 310
263 268 267 266 266 268 260 253 243 245 229 223 225 229 222 228 233 251 264 285 289 287 340 3 353 353 353 349 344 341 338 341 336 334 326 321 320 318
264 263 263 263 265 257 256 242 237 232 228 203 207 212 223 236 233 245 283 269 267 215 71 29 20 14 5 8 0 349 341 338 339 345 335 335 333 325
270 271 264 261 251 249 252 236 233 225 224 196 205 202 214 230 242 241 247 258 223 137 77 40 32 27 19 16 11 4 360 7 10 1 350 343 341 329
270 263 268 265 258 253 249 237 230 225 227 216 211 214 208 226 229 226 238 222 185 145 108 55 40 32 23 28 20 17 10 9 5 1 354 350 342 333
263 258 264 272 265 247 239 231 223 221 209 209 207 196 206 217 224 224 216 201 183 161 124 74 45 23 24 27 28 25 18 12 2 356 353 348 343 9
260 260 261 254 246 239 226 220 210 203 203 211 200 201 207 212 221 221 214 198 182 177 127 77 44 32 45 43 39 32 23 18 14 12 10 9 5 7
253 246 248 251 262 231 194 198 185 192 195 178 193 201 213 222 230 229 212 188 176 166 127 83 61 56 51 43 40 34 22 19 20 15 9 5 2 358
246 236 247 247 253 222 219 172 182 188 191 180 200 216 218 225 233 232 220 200 185 162 138 100 98 68 50 43 41 32 26 26 28 25 17 11 15 10
234 230 241 235 239 209 205 205 190 175 196 211 234 237 227 221 263 243 219 184 178 155 138 115 101 78 51 44 41 32 28 26 26 26 30 36 33 31
224 208 210 212 216 189 196 205 207 194 197 205 219 218 232 241 274 225 186 171 161 162 148 147 112 100 63 54 44 31 28 28 27 29 28 34 37 33
191 199 202 196 175 168 175 187 189 200 211 208 209 193 214 255 241 189 173 169 159 162 164 181 127 111 75 56 48 32 26 25 29 30 27 26 20 18
185 185 193 191 190 181 172 166 172 184 183 197 203 185 189 193 151 161 164 158 156 152 167 165 148 111 126 88 52 27 24 30 28 32 34 39 36 33
177 175 174 178 181 173 171 175 184 183 189 187 185 176 176 154 144 145 150 159 153 150 158 142 171 141 126 79 49 23 23 32 32 41 47 49 47 45
167 165 162 161 166 174 177 182 191 182 177 171 163 164 151 142 142 139 149 162 149 129 140 87 117 120 124 114 68 9 12 38 43 52 60 59 58 56
156 158 163 163 170 165 171 178 179 181 174 177 166 151 146 145 141 144 148 143 142 121 123 118 119 129 114 97 87 79 76 76 62 65 68 65 60 56
151 148 149 150 158 163 164 164 177 165 162 166 160 151 151 150 152 147 146 154 141 135 137 133 124 113 100 87 84 76 78 78 74 71 71 69 65 59
151 144 137 152 153 155 158 162 162 162 166 157 153 151 151 151 150 152 154 162 148 142 144 142 136 128 113 99 78 74 79 79 79 77 73 71 67 62
149 150 157 150 146 152 159 156 158 167 159 153 150 154 152 149 152 162 165 161 147 143 144 146 149 145 133 117 107 79 71 80 82 80 76 72 69 65
156 154 158 150 149 147 145 142 146 154 153 151 155 156 149 153 160 164 163 155 148 149 155 153 153 138 125 118 117 112 81 80 81 81 77 73 70 67
152 154 156 147 144 142 144 148 151 150 150 153 155 152 159 162 161 159 154 150 148 147 145 144 146 132 122 114 118 114 106 95 89 75 72 68 67 64
149 153 150 146 146 148 149 147 148 148 154 154 154 155 151 150 147 148 149 148 147 143 140 131 127 126 120 114 113 116 120 120 103 82 75 67 57 54
147 147 148 147 143 144 145 145 146 151 154 153 157 152 151 150 148 147 146 137 133 130 125 124 125 123 117 114 112 116 115 112 107 95 77 65 55 47
Wind_Speed_850mb
72 68 64 60 55 48 46 44 33 28 23 18 14 16 16 17 9 5 10 14 21 17 15 13 15 17 23 26 27 27 25 23 21 23 21 18 22 19
92 85 81 74 64 59 58 46 41 36 24 17 18 14 22 21 16 12 14 12 8 9 1 7 15 19 22 23 22 23 20 20 21 21 19 20 21 22
45 57 65 75 78 59 50 47 47 41 33 20 15 10 17 22 21 14 10 10 6 1 6 10 13 17 20 22 22 24 23 20 17 22 20 21 26 25
40 37 43 45 54 59 46 48 45 46 41 21 17 23 25 18 23 17 11 11 7 7 8 11 17 23 25 26 28 32 20 13 20 23 21 26 27 30
34 33 31 32 43 52 55 48 48 46 39 26 18 23 27 25 28 25 16 11 13 9 8 11 20 27 27 30 30 32 29 23 23 24 26 29 35 37
35 33 35 31 33 42 52 49 54 45 35 26 19 22 22 31 37 31 24 20 21 14 11 14 24 29 27 28 30 32 30 26 23 25 30 32 39 28
38 37 30 30 28 20 44 48 55 49 37 26 19 22 26 38 39 38 32 28 24 17 15 18 22 25 31 32 34 34 34 27 27 32 33 28 30 35
41 35 29 21 18 35 38 58 44 42 39 26 27 25 29 23 31 43 40 38 29 24 18 16 18 22 28 30 36 37 39 32 27 31 32 30 29 26
41 44 31 26 20 29 33 49 40 34 28 24 20 22 28 25 29 43 47 37 32 28 21 17 20 23 29 37 42 44 41 37 28 33 38 29 26 25
34 39 37 32 21 30 37 27 34 22 23 27 23 22 11 12 25 38 34 32 27 27 24 21 25 19 25 35 47 47 46 47 36 29 38 40 33 32
32 32 31 25 26 34 42 38 35 15 21 27 28 26 20 10 16 27 42 42 39 31 20 16 19 20 19 29 40 45 50 48 40 34 28 30 31 32
25 29 33 28 22 22 29 31 29 27 26 32 35 36 26 13 5 20 43 45 41 32 22 14 17 11 16 21 29 38 45 47 44 35 30 27 25 28
23 27 34 37 32 29 32 36 34 29 25 24 25 35 18 13 30 36 40 41 36 11 21 13 10 10 13 16 19 25 37 38 38 35 35 37 35 30
25 24 25 32 40 33 39 43 35 23 32 25 27 33 20 42 45 48 45 36 18 10 16 7 7 11 8 13 11 17 31 32 32 33 37 39 41 46
30 30 28 34 36 37 37 33 26 28 29 33 38 35 51 65 61 52 35 27 22 19 11 1 10 12 8 7 8 10 16 29 28 34 40 49 52 53
36 36 35 39 35 37 40 33 27 34 32 39 38 57 71 66 56 44 40 37 33 32 30 23 21 17 19 22 29 36 36 31 37 40 50 56 59 62
44 40 37 40 41 37 36 32 28 35 44 46 58 75 67 57 46 48 40 46 38 36 35 32 25 35 41 39 44 45 45 46 48 53 60 68 73 73
40 32 40 45 35 42 40 39 35 46 52 66 76 68 61 59 56 51 39 34 34 35 33 32 37 39 35 36 37 42 44 50 56 62 70 80 83 83
43 42 39 34 36 37 37 36 40 43 68 79 72 67 63 54 50 50 39 34 34 32 32 28 28 27 30 30 29 32 34 39 43 53 63 71 76 79
45 49 39 36 36 45 46 49 49 70 81 74 70 66 55 50 47 40 37 39 38 37 34 23 21 15 21 29 30 27 28 29 37 47 53 57 62 64
54 49 42 38 45 47 47 50 66 78 77 69 63 53 48 45 42 42 46 46 42 36 32 26 21 17 20 26 30 31 31 30 31 40 43 43 47 49
43 48 46 50 50 50 49 69 81 76 60 57 53 46 45 47 58 59 49 41 33 26 29 36 39 37 40 43 46 45 40 32 26 23 26 34 34 36
50 57 55 56 50 51 80 85 68 62 52 54 54 52 50 63 48 43 48 36 48 60 65 61 53 47 44 42 41 40 38 35 30 26 26 28 31 33
Wind_Direction_850mb
270 269 269 267 267 266 259 256 260 245 237 239 221 209 220 230 236 247 278 291 288 294 304 317 321 331 330 335 338 336 331 319 310 304 303 305 300 310
263 268 267 266 266 268 260 253 243 245 229 223 225 229 222 228 233 251 264 285 289 287 340 3 353 353 353 349 344 341 338 341 336 334 326 321 320 318
264 263 263 263 265 257 256 242 237 232 228 203 207 212 223 236 233 245 283 269 267 215 71 29 20 14 5 8 0 349 341 338 339 345 335 335 333 325
270 271 264 261 251 249 252 236 233 225 224 196 205 202 214 230 242 241 247 258 223 137 77 40 32 27 19 16 11 4 360 7 10 1 350 343 341 329
270 263 268 265 258 253 249 237 230 225 227 216 211 214 208 226 229 226 238 222 185 145 108 55 40 32 23 28 20 17 10 9 5 1 354 350 342 333
263 258 264 272 265 247 239 231 223 221 209 209 207 196 206 217 224 224 216 201 183 161 124 74 45 23 24 27 28 25 18 12 2 356 353 348 343 9
260 260 261 254 246 239 226 220 210 203 203 211 200 201 207 212 221 221 214 198 182 177 127 77 44 32 45 43 39 32 23 18 14 12 10 9 5 7
253 246 248 251 262 231 194 198 185 192 195 178 193 201 213 222 230 229 212 188 176 166 127 83 61 56 51 43 40 34 22 19 20 15 9 5 2 358
246 236 247 247 253 222 219 172 182 188 191 180 200 216 218 225 233 232 220 200 185 162 138 100 98 68 50 43 41 32 26 26 28 25 17 11 15 10
234 230 241 235 239 209 205 205 190 175 196 211 234 237 227 221 263 243 219 184 178 155 138 115 101 78 51 44 41 32 28 26 26 26 30 36 33 31
224 208 210 212 216 189 196 205 207 194 197 205 219 218 232 241 274 225 186 171 161 162 148 147 112 100 63 54 44 31 28 28 27 29 28 34 37 33
191 199 202 196 175 168 175 187 189 200 211 208 209 193 214 255 241 189 173 169 159 162 164 181 127 111 75 56 48 32 26 25 29 30 27 26 20 18
185 185 193 191 190 181 172 166 172 184 183 197 203 185 189 193 151 161 164 158 156 152 167 165 148 111 126 88 52 27 24 30 28 32 34 39 36 33
177 175 174 178 181 173 171 175 184 183 189 187 185 176 176 154 144 145 150 159 153 150 158 142 171 141 126 79 49 23 23 32 32 41 47 49 47 45
167 165 162 161 166 174 177 182 191 182 177 171 163 164 151 142 142 139 149 162 149 129 140 87 117 120 124 114 68 9 12 38 43 52 60 59 58 56
156 158 163 163 170 165 171 178 179 181 174 177 166 151 146 145 141 144 148 143 142 121 123 118 119 129 114 97 87 79 76 76 62 65 68 65 60 56
151 148 149 150 158 163 164 164 177 165 162 166 160 151 151 150 152 147 146 154 141 135 137 133 124 113 100 87 84 76 78 78 74 71 71 69 65 59
151 144 137 152 153 155 158 162 162 162 166 157 153 151 151 151 150 152 154 162 148 142 144 142 136 128 113 99 78 74 79 79 79 77 73 71 67 62
149 150 157 150 146 152 159 156 158 167 159 153 150 154 152 149 152 162 165 161 147 143 144 146 149 145 133 117 107 79 71 80 82 80 76 72 69 65
156 154 158 150 149 147 145 142 146 154 153 151 155 156 149 153 160 164 163 155 148 149 155 153 153 138 125 118 117 112 81 80 81 81 77 73 70 67
152 154 156 147 144 142 144 148 151 150 150 153 155 152 159 162 161 159 154 150 148 147 145 144 146 132 122 114 118 114 106 95 89 75 72 68 67 64
149 153 150 146 146 148 149 147 148 148 154 154 154 155 151 150 147 148 149 148 147 143 140 131 127 126 120 114 113 116 120 120 103 82 75 67 57 54
147 147 148 147 143 144 145 145 146 151 154 153 157 152 151 150 148 147 146 137 133 130 125 124 125 123 117 114 112 116 115 112 107 95 77 65 55 47